Wetterdaten: Woche 04.12.17 - 10.12.17 (KW49)
Datum Zeit Temp. Aussen Temp. o. S. +5cm Feuchte Auss BlattFeu 1 Luftdruck Regen Sonnenschein Regendauer Solar Windben Empfang
04.12.2017 00:00 2,8 C 2,8 C 1,7 C 99 % 15 lf 1025,2 hPa 0,0 l/m 0,00 h 0,07 h 0 W/m 16,6 km/h (3 Bft) 96,20 %
04.12.2017 01:00 3,0 C 2,8 C 2,2 C 99 % 15 lf 1025,3 hPa 0,0 l/m 0,00 h 0,07 h 0 W/m 17,1 km/h (3 Bft) 97,61 %
04.12.2017 02:00 3,2 C 3,2 C 2,2 C 99 % 15 lf 1025,6 hPa 0,0 l/m 0,00 h 0,33 h 0 W/m 15,2 km/h (3 Bft) 95,17 %
04.12.2017 03:00 3,4 C 3,3 C 2,2 C 99 % 15 lf 1025,7 hPa 0,2 l/m 0,00 h 0,57 h 0 W/m 17,0 km/h (3 Bft) 96,32 %
04.12.2017 04:00 3,7 C 3,7 C 2,8 C 99 % 15 lf 1025,6 hPa 0,2 l/m 0,00 h 0,53 h 0 W/m 16,5 km/h (3 Bft) 99,06 %
04.12.2017 05:00 3,9 C 3,9 C 2,8 C 99 % 15 lf 1025,8 hPa 0,0 l/m 0,00 h 0,23 h 0 W/m 15,9 km/h (3 Bft) 94,42 %
04.12.2017 06:00 4,2 C 4,1 C 3,2 C 99 % 15 lf 1025,9 hPa 0,2 l/m 0,00 h 0,43 h 0 W/m 19,2 km/h (3 Bft) 96,36 %
04.12.2017 07:00 4,4 C 4,4 C 3,3 C 99 % 15 lf 1026,5 hPa 0,0 l/m 0,00 h 0,50 h 0 W/m 14,9 km/h (3 Bft) 97,90 %
04.12.2017 08:00 4,7 C 4,5 C 3,5 C 99 % 15 lf 1027,0 hPa 0,0 l/m 0,00 h 0,20 h 6 W/m 16,3 km/h (3 Bft) 95,46 %
04.12.2017 09:00 5,0 C 5,1 C 4,1 C 99 % 15 lf 1027,5 hPa 0,2 l/m 0,00 h 0,30 h 32 W/m 15,7 km/h (3 Bft) 97,31 %
04.12.2017 10:00 5,6 C 6,1 C 4,9 C 100 % 15 lf 1028,0 hPa 0,0 l/m 0,00 h 0,07 h 71 W/m 18,6 km/h (3 Bft) 95,61 %
04.12.2017 11:00 6,2 C 6,5 C 5,5 C 100 % 14 lf 1028,4 hPa 0,0 l/m 0,00 h 0,13 h 71 W/m 20,2 km/h (4 Bft) 95,96 %
04.12.2017 12:00 6,4 C 6,7 C 5,6 C 100 % 5 lf 1028,5 hPa 0,0 l/m 0,00 h 0,07 h 57 W/m 18,3 km/h (3 Bft) 98,05 %
04.12.2017 13:00 6,8 C 7,4 C 6,0 C 99 % 0 lf 1028,6 hPa 0,0 l/m 0,00 h 0,00 h 86 W/m 16,2 km/h (3 Bft) 94,28 %
04.12.2017 14:00 7,3 C 8,5 C 6,2 C 99 % 0 lf 1028,5 hPa 0,0 l/m 0,37 h 0,00 h 108 W/m 16,2 km/h (3 Bft) 96,67 %
04.12.2017 15:00 7,3 C 7,4 C 5,4 C 98 % 0 lf 1028,8 hPa 0,0 l/m 0,13 h 0,00 h 36 W/m 15,4 km/h (3 Bft) 97,86 %
04.12.2017 16:00 7,1 C 6,9 C 5,2 C 96 % 0 lf 1029,4 hPa 0,0 l/m 0,20 h 0,00 h 14 W/m 14,5 km/h (3 Bft) 93,08 %
04.12.2017 17:00 6,6 C 6,1 C 4,3 C 95 % 0 lf 1029,9 hPa 0,0 l/m 0,00 h 0,00 h 0 W/m 13,7 km/h (3 Bft) 94,79 %
04.12.2017 18:00 6,1 C 5,6 C 4,1 C 96 % 0 lf 1030,5 hPa 0,0 l/m 0,00 h 0,00 h 0 W/m 13,8 km/h (3 Bft) 96,76 %
04.12.2017 19:00 5,9 C 5,6 C 4,4 C 96 % 0 lf 1031,1 hPa 0,0 l/m 0,00 h 0,00 h 0 W/m 13,8 km/h (3 Bft) 96,21 %
04.12.2017 20:00 5,8 C 5,6 C 4,4 C 97 % 0 lf 1031,5 hPa 0,0 l/m 0,00 h 0,00 h 0 W/m 16,9 km/h (3 Bft) 96,32 %
04.12.2017 21:00 5,8 C 5,6 C 4,4 C 97 % 0 lf 1031,8 hPa 0,0 l/m 0,00 h 0,00 h 0 W/m 15,8 km/h (3 Bft) 95,10 %
04.12.2017 22:00 5,6 C 5,6 C 4,3 C 97 % 0 lf 1032,3 hPa 0,0 l/m 0,00 h 0,00 h 0 W/m 15,6 km/h (3 Bft) 96,32 %
04.12.2017 23:00 5,6 C 5,6 C 4,4 C 97 % 0 lf 1032,7 hPa 0,0 l/m 0,00 h 0,00 h 0 W/m 19,5 km/h (3 Bft) 97,42 %
05.12.2017 00:00 5,1 C 4,6 C 3,3 C 96 % 0 lf 1033,0 hPa 0,0 l/m 0,00 h 0,00 h 0 W/m 18,6 km/h (3 Bft) 95,76 %
05.12.2017 01:00 4,4 C 3,9 C 2,6 C 96 % 1 lf 1032,9 hPa 0,0 l/m 0,00 h 0,00 h 0 W/m 11,7 km/h (2 Bft) 94,73 %
05.12.2017 02:00 4,1 C 3,9 C 2,6 C 96 % 0 lf 1032,7 hPa 0,0 l/m 0,00 h 0,00 h 0 W/m 16,6 km/h (3 Bft) 95,71 %
05.12.2017 03:00 4,4 C 4,4 C 3,2 C 97 % 0 lf 1032,6 hPa 0,0 l/m 0,00 h 0,00 h 0 W/m 17,5 km/h (3 Bft) 98,08 %
05.12.2017 04:00 4,7 C 4,8 C 3,5 C 96 % 0 lf 1032,5 hPa 0,0 l/m 0,00 h 0,03 h 0 W/m 18,8 km/h (3 Bft) 95,87 %
05.12.2017 05:00 5,0 C 5,0 C 3,5 C 95 % 12 lf 1032,4 hPa 0,0 l/m 0,00 h 0,03 h 0 W/m 24,2 km/h (4 Bft) 95,23 %
05.12.2017 06:00 5,1 C 4,9 C 3,8 C 95 % 12 lf 1032,5 hPa 0,0 l/m 0,00 h 0,10 h 0 W/m 22,1 km/h (4 Bft) 97,27 %
05.12.2017 07:00 5,1 C 4,5 C 3,3 C 96 % 15 lf 1032,8 hPa 0,0 l/m 0,00 h 0,23 h 0 W/m 20,6 km/h (4 Bft) 95,84 %
05.12.2017 08:00 5,1 C 5,0 C 3,9 C 96 % 15 lf 1033,1 hPa 0,0 l/m 0,00 h 0,17 h 5 W/m 21,0 km/h (4 Bft) 96,65 %
05.12.2017 09:00 5,2 C 5,1 C 3,9 C 96 % 5 lf 1033,3 hPa 0,0 l/m 0,00 h 0,10 h 10 W/m 23,3 km/h (4 Bft) 96,76 %
05.12.2017 10:00 5,3 C 5,6 C 4,3 C 96 % 0 lf 1033,5 hPa 0,0 l/m 0,00 h 0,00 h 26 W/m 23,4 km/h (4 Bft) 93,37 %
05.12.2017 11:00 5,6 C 5,9 C 4,5 C 95 % 0 lf 1033,6 hPa 0,0 l/m 0,00 h 0,00 h 36 W/m 20,2 km/h (4 Bft) 98,68 %
05.12.2017 12:00 5,9 C 6,3 C 5,0 C 94 % 0 lf 1033,3 hPa 0,0 l/m 0,00 h 0,00 h 46 W/m 18,6 km/h (3 Bft) 96,62 %
05.12.2017 13:00 6,2 C 6,6 C 5,0 C 93 % 0 lf 1033,1 hPa 0,0 l/m 0,00 h 0,00 h 35 W/m 18,5 km/h (3 Bft) 94,85 %
05.12.2017 14:00 6,3 C 6,7 C 5,0 C 92 % 0 lf 1032,7 hPa 0,2 l/m 0,00 h 0,00 h 27 W/m 18,7 km/h (3 Bft) 97,75 %
05.12.2017 15:00 6,4 C 6,4 C 5,0 C 91 % 0 lf 1032,6 hPa 0,0 l/m 0,00 h 0,00 h 13 W/m 20,3 km/h (4 Bft) 97,02 %
05.12.2017 16:00 6,4 C 6,1 C 5,0 C 90 % 0 lf 1032,6 hPa 0,0 l/m 0,00 h 0,00 h 5 W/m 21,0 km/h (4 Bft) 94,72 %
05.12.2017 17:00 6,4 C 6,1 C 5,0 C 90 % 0 lf 1032,7 hPa 0,0 l/m 0,00 h 0,00 h 0 W/m 23,3 km/h (4 Bft) 97,94 %
05.12.2017 18:00 6,4 C 6,1 C 5,0 C 89 % 0 lf 1032,9 hPa 0,0 l/m 0,00 h 0,00 h 0 W/m 20,9 km/h (4 Bft) 95,85 %
05.12.2017 19:00 6,4 C 6,1 C 5,0 C 89 % 0 lf 1032,7 hPa 0,0 l/m 0,00 h 0,00 h 0 W/m 21,4 km/h (4 Bft) 97,34 %
05.12.2017 20:00 6,4 C 6,1 C 5,0 C 88 % 0 lf 1032,7 hPa 0,0 l/m 0,00 h 0,00 h 0 W/m 18,0 km/h (3 Bft) 96,52 %
05.12.2017 21:00 6,4 C 6,1 C 5,0 C 87 % 0 lf 1032,5 hPa 0,0 l/m 0,00 h 0,00 h 0 W/m 19,5 km/h (3 Bft) 94,22 %
05.12.2017 22:00 6,4 C 6,1 C 5,0 C 86 % 0 lf 1032,4 hPa 0,0 l/m 0,00 h 0,00 h 0 W/m 17,9 km/h (3 Bft) 98,69 %
05.12.2017 23:00 6,3 C 6,1 C 5,0 C 85 % 0 lf 1032,1 hPa 0,0 l/m 0,00 h 0,00 h 0 W/m 19,5 km/h (3 Bft) 97,50 %
06.12.2017 00:00 6,3 C 6,1 C 5,0 C 85 % 0 lf 1032,2 hPa 0,0 l/m 0,00 h 0,00 h 0 W/m 19,6 km/h (3 Bft) 93,61 %
06.12.2017 01:00 6,2 C 6,1 C 4,8 C 86 % 0 lf 1032,0 hPa 0,0 l/m 0,00 h 0,00 h 0 W/m 20,0 km/h (4 Bft) 97,86 %
06.12.2017 02:00 6,1 C 6,1 C 4,6 C 87 % 0 lf 1031,8 hPa 0,0 l/m 0,00 h 0,00 h 0 W/m 19,8 km/h (4 Bft) 97,75 %
06.12.2017 03:00 6,0 C 6,1 C 4,5 C 88 % 0 lf 1031,6 hPa 0,0 l/m 0,00 h 0,00 h 0 W/m 17,4 km/h (3 Bft) 94,67 %
06.12.2017 04:00 6,1 C 6,1 C 5,0 C 88 % 0 lf 1031,2 hPa 0,0 l/m 0,00 h 0,00 h 0 W/m 14,1 km/h (3 Bft) 97,57 %
06.12.2017 05:00 6,2 C 6,1 C 5,0 C 88 % 0 lf 1030,7 hPa 0,0 l/m 0,00 h 0,00 h 0 W/m 17,1 km/h (3 Bft) 95,62 %
06.12.2017 06:00 6,4 C 6,1 C 5,0 C 88 % 0 lf 1030,4 hPa 0,0 l/m 0,00 h 0,00 h 0 W/m 18,5 km/h (3 Bft) 97,89 %
06.12.2017 07:00 6,5 C 6,5 C 5,2 C 88 % 0 lf 1030,2 hPa 0,0 l/m 0,00 h 0,00 h 0 W/m 22,3 km/h (4 Bft) 96,20 %
06.12.2017 08:00 6,7 C 6,7 C 5,6 C 87 % 0 lf 1030,1 hPa 0,0 l/m 0,00 h 0,00 h 6 W/m 22,4 km/h (4 Bft) 95,16 %
06.12.2017 09:00 6,9 C 7,0 C 5,7 C 86 % 0 lf 1030,2 hPa 0,0 l/m 0,00 h 0,00 h 17 W/m 17,6 km/h (3 Bft) 97,00 %
06.12.2017 10:00 7,2 C 7,6 C 6,5 C 86 % 0 lf 1030,2 hPa 0,0 l/m 0,00 h 0,00 h 41 W/m 16,5 km/h (3 Bft) 98,21 %
06.12.2017 11:00 7,6 C 8,0 C 7,0 C 86 % 0 lf 1030,0 hPa 0,0 l/m 0,00 h 0,00 h 67 W/m 19,7 km/h (3 Bft) 93,64 %
06.12.2017 12:00 8,1 C 8,7 C 7,8 C 85 % 0 lf 1029,4 hPa 0,0 l/m 0,00 h 0,00 h 90 W/m 21,9 km/h (4 Bft) 97,94 %
06.12.2017 13:00 8,4 C 8,9 C 7,9 C 85 % 0 lf 1029,0 hPa 0,0 l/m 0,00 h 0,00 h 85 W/m 23,1 km/h (4 Bft) 96,92 %
06.12.2017 14:00 8,4 C 8,6 C 7,6 C 85 % 0 lf 1028,5 hPa 0,0 l/m 0,00 h 0,00 h 57 W/m 22,1 km/h (4 Bft) 96,21 %
06.12.2017 15:00 8,2 C 8,0 C 7,0 C 87 % 0 lf 1028,2 hPa 0,0 l/m 0,00 h 0,00 h 23 W/m 14,6 km/h (3 Bft) 96,18 %
06.12.2017 16:00 7,7 C 7,3 C 6,3 C 88 % 0 lf 1028,0 hPa 0,0 l/m 0,00 h 0,00 h 8 W/m 17,3 km/h (3 Bft) 96,86 %
06.12.2017 17:00 7,3 C 7,2 C 6,1 C 89 % 0 lf 1027,6 hPa 0,0 l/m 0,00 h 0,00 h 0 W/m 17,8 km/h (3 Bft) 95,72 %
06.12.2017 18:00 7,2 C 7,2 C 6,1 C 89 % 0 lf 1027,3 hPa 0,0 l/m 0,00 h 0,00 h 0 W/m 17,6 km/h (3 Bft) 97,62 %
06.12.2017 19:00 7,2 C 7,2 C 6,0 C 89 % 0 lf 1026,8 hPa 0,0 l/m 0,00 h 0,00 h 0 W/m 19,4 km/h (3 Bft) 94,22 %
06.12.2017 20:00 7,2 C 7,2 C 5,8 C 87 % 0 lf 1026,3 hPa 0,0 l/m 0,00 h 0,00 h 0 W/m 23,1 km/h (4 Bft) 97,58 %
06.12.2017 21:00 7,1 C 6,9 C 5,6 C 85 % 0 lf 1025,9 hPa 0,0 l/m 0,00 h 0,00 h 0 W/m 19,7 km/h (3 Bft) 97,28 %
06.12.2017 22:00 6,9 C 6,7 C 5,6 C 83 % 0 lf 1025,3 hPa 0,0 l/m 0,00 h 0,00 h 0 W/m 21,4 km/h (4 Bft) 95,29 %
06.12.2017 23:00 6,7 C 6,7 C 5,5 C 81 % 0 lf 1024,8 hPa 0,0 l/m 0,00 h 0,00 h 0 W/m 23,8 km/h (4 Bft) 96,17 %
07.12.2017 00:00 6,5 C 6,4 C 5,0 C 79 % 0 lf 1024,0 hPa 0,0 l/m 0,00 h 0,00 h 0 W/m 23,5 km/h (4 Bft) 96,60 %
07.12.2017 01:00 6,2 C 6,1 C 5,0 C 78 % 0 lf 1023,2 hPa 0,0 l/m 0,00 h 0,00 h 0 W/m 25,5 km/h (4 Bft) 96,42 %
07.12.2017 02:00 5,8 C 5,7 C 4,4 C 77 % 0 lf 1022,4 hPa 0,0 l/m 0,00 h 0,00 h 0 W/m 31,8 km/h (5 Bft) 96,13 %
07.12.2017 03:00 5,4 C 5,1 C 4,0 C 78 % 0 lf 1021,8 hPa 0,0 l/m 0,00 h 0,00 h 0 W/m 31,8 km/h (5 Bft) 95,90 %
07.12.2017 04:00 5,1 C 5,0 C 3,9 C 80 % 0 lf 1020,9 hPa 0,0 l/m 0,00 h 0,00 h 0 W/m 25,6 km/h (4 Bft) 95,91 %
07.12.2017 05:00 4,9 C 4,8 C 3,8 C 82 % 0 lf 1019,9 hPa 0,0 l/m 0,00 h 0,00 h 0 W/m 25,3 km/h (4 Bft) 97,64 %
07.12.2017 06:00 4,5 C 4,3 C 3,2 C 83 % 0 lf 1019,4 hPa 0,0 l/m 0,00 h 0,00 h 0 W/m 27,8 km/h (4 Bft) 95,03 %
07.12.2017 07:00 3,6 C 3,5 C 2,4 C 83 % 0 lf 1018,8 hPa 0,0 l/m 0,00 h 0,00 h 0 W/m 28,3 km/h (4 Bft) 96,48 %
07.12.2017 08:00 3,1 C 3,3 C 2,2 C 84 % 0 lf 1018,0 hPa 0,0 l/m 0,00 h 0,00 h 8 W/m 33,9 km/h (5 Bft) 96,18 %
07.12.2017 09:00 3,2 C 3,4 C 2,5 C 83 % 0 lf 1017,0 hPa 0,0 l/m 0,07 h 0,00 h 34 W/m 35,1 km/h (5 Bft) 98,38 %
07.12.2017 10:00 3,9 C 4,2 C 3,4 C 83 % 0 lf 1016,1 hPa 0,0 l/m 0,00 h 0,00 h 41 W/m 33,9 km/h (5 Bft) 93,41 %
07.12.2017 11:00 4,8 C 5,2 C 4,2 C 83 % 0 lf 1015,0 hPa 0,0 l/m 0,00 h 0,00 h 44 W/m 27,9 km/h (4 Bft) 96,71 %
07.12.2017 12:00 5,0 C 5,1 C 4,1 C 84 % 0 lf 1013,4 hPa 0,0 l/m 0,00 h 0,00 h 24 W/m 23,7 km/h (4 Bft) 97,78 %
07.12.2017 13:00 6,0 C 6,4 C 5,2 C 87 % 0 lf 1011,9 hPa 0,0 l/m 0,00 h 0,13 h 19 W/m 29,9 km/h (5 Bft) 96,72 %
07.12.2017 14:00 6,9 C 7,1 C 5,9 C 86 % 0 lf 1010,5 hPa 0,0 l/m 0,00 h 0,00 h 22 W/m 31,1 km/h (5 Bft) 94,66 %
07.12.2017 15:00 7,2 C 7,0 C 5,8 C 87 % 0 lf 1009,3 hPa 0,0 l/m 0,00 h 0,03 h 9 W/m 32,4 km/h (5 Bft) 98,02 %
07.12.2017 16:00 7,1 C 6,3 C 5,1 C 90 % 11 lf 1008,2 hPa 0,2 l/m 0,00 h 0,57 h 0 W/m 31,3 km/h (5 Bft) 95,28 %
07.12.2017 17:00 6,9 C 6,5 C 5,1 C 93 % 6 lf 1007,0 hPa 0,0 l/m 0,00 h 0,23 h 0 W/m 31,4 km/h (5 Bft) 97,88 %
07.12.2017 18:00 7,3 C 6,5 C 5,6 C 93 % 14 lf 1006,1 hPa 1,0 l/m 0,00 h 0,93 h 0 W/m 32,2 km/h (5 Bft) 95,04 %
07.12.2017 19:00 7,1 C 6,1 C 5,2 C 95 % 15 lf 1005,8 hPa 1,8 l/m 0,00 h 1,00 h 0 W/m 35,9 km/h (5 Bft) 96,72 %
07.12.2017 20:00 6,8 C 6,1 C 5,0 C 95 % 15 lf 1005,6 hPa 0,6 l/m 0,00 h 1,00 h 0 W/m 36,0 km/h (5 Bft) 98,32 %
07.12.2017 21:00 6,7 C 6,1 C 5,0 C 96 % 15 lf 1005,4 hPa 0,6 l/m 0,00 h 0,83 h 0 W/m 30,7 km/h (5 Bft) 95,78 %
07.12.2017 22:00 6,6 C 6,1 C 5,0 C 97 % 15 lf 1005,9 hPa 0,0 l/m 0,00 h 0,27 h 0 W/m 22,1 km/h (4 Bft) 95,64 %
07.12.2017 23:00 6,1 C 5,5 C 4,3 C 97 % 15 lf 1006,4 hPa 0,0 l/m 0,00 h 0,00 h 0 W/m 16,9 km/h (3 Bft) 98,45 %
08.12.2017 00:00 5,7 C 5,1 C 4,1 C 96 % 15 lf 1006,7 hPa 0,0 l/m 0,00 h 0,03 h 0 W/m 19,7 km/h (3 Bft) 95,05 %
08.12.2017 01:00 5,5 C 5,0 C 3,8 C 96 % 15 lf 1006,8 hPa 0,0 l/m 0,00 h 0,03 h 0 W/m 22,9 km/h (4 Bft) 97,27 %
08.12.2017 02:00 5,0 C 4,2 C 3,0 C 96 % 13 lf 1007,0 hPa 0,0 l/m 0,00 h 0,00 h 0 W/m 19,9 km/h (4 Bft) 96,80 %
08.12.2017 03:00 4,5 C 3,8 C 2,7 C 95 % 7 lf 1007,4 hPa 0,0 l/m 0,00 h 0,27 h 0 W/m 30,1 km/h (5 Bft) 94,37 %
08.12.2017 04:00 4,2 C 3,5 C 2,3 C 93 % 11 lf 1007,4 hPa 0,2 l/m 0,00 h 0,23 h 0 W/m 27,8 km/h (4 Bft) 98,76 %
08.12.2017 05:00 3,8 C 3,4 C 1,8 C 93 % 3 lf 1007,4 hPa 0,0 l/m 0,00 h 0,23 h 0 W/m 28,3 km/h (4 Bft) 96,84 %
08.12.2017 06:00 3,1 C 2,7 C 1,2 C 92 % 0 lf 1007,4 hPa 0,0 l/m 0,00 h 0,00 h 0 W/m 26,0 km/h (4 Bft) 94,93 %
08.12.2017 07:00 2,7 C 2,4 C 1,2 C 92 % 3 lf 1007,5 hPa 0,0 l/m 0,00 h 0,27 h 0 W/m 30,3 km/h (5 Bft) 97,34 %
08.12.2017 08:00 2,1 C 1,6 C 0,3 C 92 % 15 lf 1007,7 hPa 0,0 l/m 0,00 h 0,80 h 9 W/m 27,3 km/h (4 Bft) 97,13 %
08.12.2017 09:00 1,8 C 2,1 C 0,5 C 93 % 12 lf 1007,7 hPa 0,0 l/m 0,33 h 0,27 h 68 W/m 19,2 km/h (3 Bft) 95,92 %
08.12.2017 10:00 2,6 C 2,9 C 1,4 C 93 % 11 lf 1007,7 hPa 0,6 l/m 0,30 h 0,90 h 66 W/m 34,7 km/h (5 Bft) 95,01 %
08.12.2017 11:00 2,8 C 2,9 C 1,7 C 93 % 15 lf 1007,7 hPa 0,0 l/m 0,17 h 0,70 h 104 W/m 39,0 km/h (6 Bft) 97,12 %
08.12.2017 12:00 2,7 C 2,4 C 1,5 C 93 % 15 lf 1007,5 hPa 0,4 l/m 0,00 h 0,90 h 44 W/m 34,8 km/h (5 Bft) 96,24 %
08.12.2017 13:00 1,8 C 1,2 C 0,3 C 94 % 15 lf 1008,2 hPa 1,0 l/m 0,00 h 1,00 h 24 W/m 23,6 km/h (4 Bft) 95,95 %
08.12.2017 14:00 0,9 C 0,7 C -0,4 C 95 % 15 lf 1008,6 hPa 0,4 l/m 0,00 h 0,70 h 45 W/m 13,2 km/h (3 Bft) 96,30 %
08.12.2017 15:00 1,2 C 1,2 C 0,1 C 96 % 15 lf 1008,6 hPa 0,2 l/m 0,10 h 0,10 h 48 W/m 13,9 km/h (3 Bft) 95,38 %
08.12.2017 16:00 1,5 C 1,1 C 0,0 C 96 % 15 lf 1009,3 hPa 0,0 l/m 0,00 h 0,50 h 8 W/m 22,1 km/h (4 Bft) 97,10 %
08.12.2017 17:00 0,6 C -0,3 C -1,0 C 96 % 15 lf 1009,7 hPa 0,0 l/m 0,00 h 0,03 h 0 W/m 15,0 km/h (3 Bft) 98,79 %
08.12.2017 18:00 0,5 C -0,1 C -1,1 C 96 % 15 lf 1009,7 hPa 0,0 l/m 0,00 h 0,10 h 0 W/m 21,3 km/h (4 Bft) 91,63 %
08.12.2017 19:00 0,9 C 0,4 C -0,7 C 94 % 14 lf 1009,6 hPa 0,0 l/m 0,00 h 0,00 h 0 W/m 26,8 km/h (4 Bft) 98,21 %
08.12.2017 20:00 1,3 C 0,8 C -0,6 C 91 % 2 lf 1009,7 hPa 0,0 l/m 0,00 h 0,23 h 0 W/m 29,7 km/h (5 Bft) 96,67 %
08.12.2017 21:00 0,9 C 0,3 C -1,1 C 91 % 15 lf 1010,3 hPa 0,0 l/m 0,00 h 0,67 h 0 W/m 26,1 km/h (4 Bft) 94,92 %
08.12.2017 22:00 0,2 C 0,0 C -1,1 C 95 % 15 lf 1010,8 hPa 0,0 l/m 0,00 h 0,03 h 0 W/m 7,5 km/h (2 Bft) 95,57 %
08.12.2017 23:00 0,1 C 0,0 C -1,1 C 96 % 15 lf 1010,9 hPa 0,0 l/m 0,00 h 0,03 h 0 W/m 0,0 km/h (0 Bft) 96,59 %
09.12.2017 00:00 0,2 C 0,0 C -1,1 C 97 % 15 lf 1011,0 hPa 0,0 l/m 0,00 h 0,07 h 0 W/m 0,0 km/h (0 Bft) 95,74 %
09.12.2017 01:00 0,2 C 0,0 C -1,1 C 97 % 15 lf 1011,0 hPa 0,2 l/m 0,00 h 0,10 h 0 W/m 10,1 km/h (2 Bft) 98,58 %
09.12.2017 02:00 0,1 C -0,2 C -1,1 C 96 % 15 lf 1011,2 hPa 0,0 l/m 0,00 h 0,00 h 0 W/m 8,1 km/h (2 Bft) 93,95 %
09.12.2017 03:00 -0,4 C -0,9 C -1,1 C 95 % 15 lf 1011,2 hPa 0,0 l/m 0,00 h 0,00 h 0 W/m 11,7 km/h (2 Bft) 95,78 %
09.12.2017 04:00 -0,6 C -1,6 C -1,1 C 94 % 8 lf 1011,0 hPa 0,0 l/m 0,00 h 0,00 h 0 W/m 13,1 km/h (3 Bft) 98,60 %
09.12.2017 05:00 -0,9 C -1,7 C -1,1 C 93 % 2 lf 1011,1 hPa 0,0 l/m 0,00 h 0,00 h 0 W/m 15,2 km/h (3 Bft) 95,01 %
09.12.2017 06:00 -0,5 C -1,1 C -1,1 C 93 % 4 lf 1010,9 hPa 0,0 l/m 0,00 h 0,00 h 0 W/m 18,6 km/h (3 Bft) 96,86 %
09.12.2017 07:00 -0,2 C -0,8 C -1,1 C 93 % 11 lf 1010,8 hPa 0,0 l/m 0,00 h 0,00 h 0 W/m 21,6 km/h (4 Bft) 96,11 %
09.12.2017 08:00 -0,0 C -0,6 C -1,1 C 93 % 15 lf 1011,0 hPa 0,0 l/m 0,00 h 0,07 h 7 W/m 20,3 km/h (4 Bft) 96,30 %
09.12.2017 09:00 0,2 C -0,1 C -1,1 C 94 % 15 lf 1011,1 hPa 0,0 l/m 0,00 h 0,07 h 9 W/m 23,6 km/h (4 Bft) 97,58 %
09.12.2017 10:00 0,4 C 0,0 C -1,1 C 95 % 15 lf 1011,7 hPa 0,0 l/m 0,00 h 0,63 h 24 W/m 17,5 km/h (3 Bft) 95,70 %
09.12.2017 11:00 0,9 C 0,9 C -1,1 C 95 % 15 lf 1011,8 hPa 0,0 l/m 0,17 h 0,53 h 103 W/m 27,0 km/h (4 Bft) 95,01 %
09.12.2017 12:00 1,8 C 3,2 C -1,1 C 92 % 15 lf 1011,7 hPa 0,8 l/m 0,83 h 0,73 h 211 W/m 32,8 km/h (5 Bft) 96,60 %
09.12.2017 13:00 1,9 C 4,0 C -1,1 C 91 % 15 lf 1011,5 hPa 1,6 l/m 0,47 h 0,13 h 155 W/m 32,4 km/h (5 Bft) 97,11 %
09.12.2017 14:00 2,1 C 3,1 C -1,1 C 90 % 15 lf 1011,3 hPa 1,0 l/m 0,13 h 0,00 h 73 W/m 32,2 km/h (5 Bft) 96,51 %
09.12.2017 15:00 1,9 C 2,2 C -1,1 C 90 % 15 lf 1011,0 hPa 0,6 l/m 0,00 h 0,00 h 27 W/m 33,1 km/h (5 Bft) 96,81 %
09.12.2017 16:00 1,8 C 1,7 C -1,1 C 89 % 15 lf 1011,0 hPa 0,4 l/m 0,00 h 0,00 h 9 W/m 31,0 km/h (5 Bft) 97,41 %
09.12.2017 17:00 1,6 C 1,5 C -1,1 C 89 % 12 lf 1010,9 hPa 0,2 l/m 0,00 h 0,00 h 0 W/m 30,5 km/h (5 Bft) 94,84 %
09.12.2017 18:00 1,5 C 1,3 C -1,1 C 87 % 1 lf 1010,8 hPa 0,2 l/m 0,00 h 0,00 h 0 W/m 30,1 km/h (5 Bft) 95,77 %
09.12.2017 19:00 1,2 C 1,1 C -1,1 C 87 % 0 lf 1010,2 hPa 0,0 l/m 0,00 h 0,00 h 0 W/m 27,0 km/h (4 Bft) 97,94 %
09.12.2017 20:00 1,2 C 1,1 C -1,1 C 88 % 0 lf 1009,7 hPa 0,0 l/m 0,00 h 0,00 h 0 W/m 24,6 km/h (4 Bft) 95,80 %
09.12.2017 21:00 1,1 C 1,1 C -1,1 C 88 % 0 lf 1008,9 hPa 0,0 l/m 0,00 h 0,00 h 0 W/m 27,2 km/h (4 Bft) 96,51 %
09.12.2017 22:00 1,2 C 1,1 C -1,1 C 89 % 0 lf 1008,2 hPa 0,2 l/m 0,00 h 0,00 h 0 W/m 25,2 km/h (4 Bft) 94,79 %
09.12.2017 23:00 1,1 C 0,8 C -1,1 C 89 % 0 lf 1007,3 hPa 0,0 l/m 0,00 h 0,00 h 0 W/m 24,2 km/h (4 Bft) 95,37 %
10.12.2017 00:00 0,9 C 0,8 C -1,1 C 90 % 0 lf 1006,3 hPa 0,0 l/m 0,00 h 0,00 h 0 W/m 23,9 km/h (4 Bft) 94,07 %
10.12.2017 01:00 1,3 C 1,3 C -1,1 C 90 % 0 lf 1005,0 hPa 0,0 l/m 0,00 h 0,00 h 0 W/m 24,3 km/h (4 Bft) 97,51 %
10.12.2017 02:00 1,4 C 1,0 C -1,1 C 90 % 4 lf 1003,9 hPa 0,0 l/m 0,00 h 0,20 h 0 W/m 23,0 km/h (4 Bft) 93,17 %
10.12.2017 03:00 1,1 C 0,6 C -1,1 C 92 % 15 lf 1002,4 hPa 0,2 l/m 0,00 h 0,57 h 0 W/m 18,1 km/h (3 Bft) 97,94 %
10.12.2017 04:00 1,0 C 0,6 C -1,1 C 93 % 15 lf 1000,8 hPa 0,2 l/m 0,00 h 0,78 h 0 W/m 17,1 km/h (3 Bft) 96,32 %
10.12.2017 05:00 0,9 C 0,6 C -1,1 C 94 % 15 lf 999,3 hPa 0,0 l/m 0,00 h 0,47 h 0 W/m 14,7 km/h (3 Bft) 96,69 %
10.12.2017 06:00 1,0 C 0,6 C -1,1 C 94 % 10 lf 997,1 hPa 0,2 l/m 0,00 h 0,00 h 0 W/m 16,2 km/h (3 Bft) 96,25 %
10.12.2017 07:00 0,8 C 0,2 C -1,1 C 92 % 0 lf 995,1 hPa 0,0 l/m 0,00 h 0,00 h 0 W/m 9,3 km/h (2 Bft) 96,01 %
10.12.2017 08:00 0,4 C 0,5 C -1,1 C 92 % 0 lf 992,6 hPa 0,0 l/m 0,00 h 0,03 h 7 W/m 16,4 km/h (3 Bft) 96,80 %
10.12.2017 09:00 1,1 C 1,5 C -1,1 C 92 % 0 lf 990,2 hPa 0,0 l/m 0,00 h 0,93 h 21 W/m 28,6 km/h (4 Bft) 96,58 %
10.12.2017 10:00 1,4 C 1,6 C -0,9 C 90 % 0 lf 987,2 hPa 0,2 l/m 0,00 h 0,20 h 29 W/m 27,8 km/h (4 Bft) 96,23 %
10.12.2017 11:00 0,7 C 0,1 C -1,1 C 92 % 13 lf 983,6 hPa 0,0 l/m 0,00 h 0,80 h 20 W/m 32,5 km/h (5 Bft) 94,80 %
10.12.2017 12:00 -0,0 C 0,0 C -1,1 C 95 % 15 lf 980,1 hPa 0,2 l/m 0,00 h 0,10 h 17 W/m 37,1 km/h (5 Bft) 97,40 %
10.12.2017 13:00 -0,3 C -0,2 C -1,1 C 96 % 15 lf 977,9 hPa 0,2 l/m 0,00 h 0,00 h 28 W/m 39,3 km/h (6 Bft) 95,01 %
10.12.2017 14:00 -0,3 C -0,1 C -1,1 C 97 % 15 lf 975,9 hPa 0,0 l/m 0,00 h 0,13 h 50 W/m 33,8 km/h (5 Bft) 93,80 %
10.12.2017 15:00 0,3 C 0,0 C -1,1 C 97 % 15 lf 974,6 hPa 0,0 l/m 0,13 h 0,83 h 27 W/m 20,6 km/h (4 Bft) 94,28 %
10.12.2017 16:00 2,9 C 1,7 C -1,1 C 98 % 15 lf 973,9 hPa 0,4 l/m 0,00 h 1,00 h 6 W/m 34,4 km/h (5 Bft) 96,29 %
10.12.2017 17:00 4,9 C 4,1 C -1,1 C 96 % 15 lf 973,0 hPa 2,6 l/m 0,00 h 0,40 h 0 W/m 40,9 km/h (6 Bft) 95,10 %
10.12.2017 18:00 6,3 C 4,5 C -0,8 C 86 % 12 lf 972,5 hPa 3,6 l/m 0,00 h 0,93 h 0 W/m 45,1 km/h (6 Bft) 97,19 %
10.12.2017 19:00 6,2 C 4,8 C 1,8 C 88 % 15 lf 973,0 hPa 3,4 l/m 0,00 h 1,00 h 0 W/m 47,7 km/h (6 Bft) 94,23 %
10.12.2017 20:00 6,4 C 5,0 C 3,1 C 90 % 15 lf 973,7 hPa 2,8 l/m 0,00 h 1,00 h 0 W/m 51,0 km/h (7 Bft) 95,59 %
10.12.2017 21:00 4,8 C 3,8 C 2,2 C 91 % 15 lf 975,3 hPa 2,0 l/m 0,00 h 0,63 h 0 W/m 55,5 km/h (7 Bft) 98,79 %
10.12.2017 22:00 3,9 C 2,9 C 1,6 C 88 % 7 lf 977,5 hPa 0,0 l/m 0,00 h 0,00 h 0 W/m 47,0 km/h (6 Bft) 95,16 %
10.12.2017 23:00 3,4 C 3,2 C 1,7 C 90 % 0 lf 979,3 hPa 0,0 l/m 0,00 h 0,00 h 0 W/m 35,1 km/h (5 Bft) 95,66 %
Min-Datum _ 09.12.17 09.12.17 08.12.17 07.12.17 04.12.17 10.12.17 - - - - 08.12.17 10.12.17
_ Min-Zeit 05:28 04:06 13:36 02:18 12:52 18:18 - - - - 22:36 00:02
Minimum _ -1,0 C -1,7 C -1,1 C 76 % 0 lf 972,3 hPa - - - - 0,0 km/h (0 Bft) 15,38 %
Max-Datum _ 06.12.17 04.12.17 06.12.17 04.12.17 04.12.17 05.12.17 10.12.17 04.12.17 04.12.17 09.12.17 10.12.17 04.12.17
_ Max-Zeit 13:28 14:10 13:24 09:50 00:00 10:50 18:00 14:10 04:05 12:26 21:34 00:48
Maximum _ 8,5 C 9,4 C 8,3 C 100 % 15 lf 1033,7 hPa 3,6 l/m 0,07 h 0,08 h 334 W/m 81,1 km/h
W-SW (9 Bft)
100,00 %
Durchschnitt _ 4,1 C 3,9 C 2,6 C 92 % 7 lf 1015,6 hPa #29,2 l/m #3:24 h #29:35 h 41 W/m 23,1 km/h (4 Bft) 96,27 %
© 2017 W. Hausmann